Location: Torch Lake Township
(45.0753°N, 85.3586°W)
Time: 06:01:38
(UTC-04:00)

Amateur Radio Satellites - All Passes

Search period start: 28 May 2015 05:31
Search period end: 29 May 2015 05:31
Location: Torch Lake Township, 45.0753°N, 85.3586°W

Satellite Date Start Highest point End Downlink Frequencies (MHz)
Time Altitude Azimuth
ITAMSAT 1 28 May 05:41:05 05:45:03 22° 298° (WNW) 05:48:53 435.822/435.867
Cosmos 2491 28 May 05:41:32 05:47:44 21° 57° (ENE) 05:54:15 435.465 / 435.565
JAS-2 28 May 06:03:19 06:08:28 67° 288° (WNW) 06:13:45 435.910
VERMONT LUNAR 28 May 06:05:45 06:08:31 26° 194° (SSW) 06:11:15 437.305
MOZHAYETS 4 28 May 06:14:30 06:18:36 31° 265° (W) 06:22:39
CUBESAT XI-V 28 May 06:19:30 06:23:23 28° 67° (ENE) 06:27:23 437.345
ISS 28 May 06:20:54 06:24:08 59° 214° (SSW) 06:27:21 145.825
Gurwin Techsat 1B 28 May 06:28:29 06:29:21 10° 305° (NW) 06:29:53 435.225
STRAND 1 28 May 06:29:54 06:33:24 19° 61° (ENE) 06:37:03 437.568
YUBILEINY 28 May 06:38:52 06:43:13 16° 76° (ENE) 06:48:04 435.215
Cubesat XI-IV 28 May 06:44:36 06:47:16 14° 87° (E) 06:50:13 437.490
PHONESAT 2.4 28 May 06:48:34 06:51:46 34° 189° (S) 06:54:58 2401.200-2431.200
SO-50 28 May 06:49:32 06:51:43 13° 336° (NNW) 06:53:50 436.795
HORYU 2 28 May 06:56:19 06:59:16 17° 297° (WNW) 07:02:05 437.375
AO-7 28 May 06:59:01 07:07:08 55° 296° (WNW) 07:15:10 29.400- 29.500
PRISM 28 May 07:10:55 07:14:45 41° 70° (ENE) 07:18:38 437.425
M-CUBED/EXP-1 PRIME 28 May 07:26:03 07:29:57 43° 67° (ENE) 07:33:36 437.505
AUBIESAT-1 28 May 07:33:00 07:36:53 45° 67° (ENE) 07:40:31 437.475
AIST 1 28 May 07:34:17 07:37:23 19° 68° (ENE) 07:40:35
Cosmos 2491 28 May 07:37:15 07:46:10 87° 81° (E) 07:54:59 435.465 / 435.565
CUBESAT XI-V 28 May 07:56:36 08:00:46 33° 265° (W) 08:04:56 437.345
CUTE-I 28 May 08:01:43 08:07:05 67° 102° (ESE) 08:12:27 437.470
RS-15 28 May 08:02:19 08:08:28 18° 100° (E) 08:15:24 29.354- 29.394
STRAND 1 28 May 08:07:09 08:12:11 62° 258° (WSW) 08:17:17 437.568
Cubesat XI-IV 28 May 08:22:45 08:28:08 82° 287° (WNW) 08:33:31 437.490
PHONESAT 2.4 28 May 08:27:07 08:29:22 16° 204° (SSW) 08:31:34 2401.200-2431.200
YUBILEINY 28 May 08:29:58 08:38:41 76° 95° (E) 08:47:25 435.215
PCSat 28 May 08:32:09 08:34:58 14° 30° (NNE) 08:37:55 145.827
PRISM 28 May 08:47:34 08:50:26 18° 268° (W) 08:53:12 437.425
AO-7 28 May 08:53:49 08:58:15 15° 318° (NW) 09:02:22 29.400- 29.500
DOVE 4 28 May 08:58:36 08:59:18 10° 82° (E) 09:00:20 437.250
Cosmos 2504 28 May 09:00:57 09:01:59 10° 75° (ENE) 09:03:38 435.465 / 435.565
M-CUBED/EXP-1 PRIME 28 May 09:02:08 09:04:58 17° 262° (W) 09:07:34 437.505
AUBIESAT-1 28 May 09:09:09 09:11:51 16° 262° (W) 09:14:18 437.475
AIST 1 28 May 09:11:07 09:15:18 43° 267° (W) 09:19:27
SEEDS 28 May 09:21:45 09:23:00 11° 87° (E) 09:24:29 437.485
COMPASS 1 28 May 09:32:33 09:34:05 12° 87° (E) 09:35:49 437.405
Cosmos 2491 28 May 09:35:45 09:42:00 21° 281° (W) 09:47:50 435.465 / 435.565
GOMX 1 28 May 09:38:52 09:43:56 41° 95° (E) 09:48:46 467.674
CUTE-I 28 May 09:42:52 09:46:42 20° 299° (WNW) 09:50:23 437.470
BRITE-PL 28 May 09:42:56 09:48:37 68° 100° (E) 09:54:01 437.365/2234.400
AAUSAT CUBESAT 2 28 May 09:43:06 09:45:07 14° 88° (E) 09:47:19 437.432
TIGRISAT 28 May 09:47:14 09:47:41 10° 59° (ENE) 09:48:23 435.000
HO-68 28 May 09:57:56 10:04:40 43° 98° (E) 10:11:25 435.675
CINEMA 3 28 May 10:01:33 10:05:02 21° 90° (E) 10:08:30 145.822/145.860
Cubesat XI-IV 28 May 10:04:50 10:07:30 14° 303° (WNW) 10:09:55 437.490
UNISAT 6 28 May 10:05:45 10:08:31 16° 63° (ENE) 10:11:26 437.425
RS-15 28 May 10:08:14 10:19:03 75° 120° (ESE) 10:30:13 29.354- 29.394
PCSat 28 May 10:14:19 10:19:40 56° 53° (NE) 10:25:00 145.827
SO-50 28 May 10:15:05 10:17:23 13° 25° (NNE) 10:19:48 436.795
NANOSAT C BR1 28 May 10:24:06 10:24:24 10° 59° (ENE) 10:24:55 145.865
YUBILEINY 28 May 10:29:20 10:36:34 27° 298° (WNW) 10:43:32 435.215
CANX-2 28 May 10:31:25 10:35:39 88° 102° (ESE) 10:39:52 2200.000
QB50P2 28 May 10:31:32 10:33:22 13° 61° (ENE) 10:35:24 145.880/145.840
DOVE 4 28 May 10:32:53 10:38:04 84° 104° (ESE) 10:42:56 437.250
CUTE 1.7 + AOD 2 28 May 10:34:44 10:38:59 87° 101° (E) 10:43:12 437.475
ZACube-1 28 May 10:39:47 10:42:18 15° 89° (E) 10:44:55 437.345
POPSAT HIP 1 28 May 10:42:37 10:45:11 16° 63° (ENE) 10:47:55 437.405
DUCHIFAT 1 28 May 10:43:24 10:45:56 16° 63° (ENE) 10:48:37 145.980
CUBEBUG 2 28 May 10:43:29 10:47:15 27° 93° (E) 10:50:56 437.445
Cosmos 2504 28 May 10:46:00 10:54:05 61° 93° (E) 11:01:40 435.465 / 435.565
ANTELSAT 28 May 10:47:20 10:51:38 38° 70° (ENE) 10:55:56 437.575/2403.000
Oscar 11 28 May 10:48:01 10:51:53 32° 96° (E) 10:55:46 145.826/435.025
SEEDS 28 May 10:55:11 10:59:21 68° 286° (WNW) 11:03:29 437.485
BUGSAT 1 28 May 11:00:00 11:02:33 16° 63° (ENE) 11:05:14 437.445
COMPASS 1 28 May 11:06:09 11:10:16 64° 286° (WNW) 11:14:21 437.405
AAUSAT CUBESAT 2 28 May 11:17:05 11:21:09 56° 287° (WNW) 11:25:11 437.432
GOMX 1 28 May 11:17:14 11:21:54 30° 294° (WNW) 11:26:17 467.674
TIGRISAT 28 May 11:19:03 11:23:44 76° 74° (ENE) 11:28:23 435.000
BRITE-PL 28 May 11:22:24 11:26:35 21° 299° (WNW) 11:30:30 437.365/2234.400
QB50P1 28 May 11:24:48 11:28:49 41° 71° (ENE) 11:32:54 145.935-145.965
UWE-3 28 May 11:27:24 11:31:47 62° 100° (E) 11:36:01 435.000/436.395/437.385
POLYITAN 1 28 May 11:27:32 11:31:38 44° 71° (ENE) 11:35:47 437.675
FUNcube-1 28 May 11:33:34 11:37:50 55° 100° (E) 11:41:59 145.935
DELFI C3 28 May 11:34:34 11:38:36 77° 102° (ESE) 11:42:37 145.870
CINEMA 3 28 May 11:37:59 11:42:32 45° 289° (WNW) 11:46:50 145.822/145.860
UNISAT 6 28 May 11:40:12 11:44:51 66° 258° (WSW) 11:49:29 437.425
AISAT 28 May 11:40:58 11:43:58 18° 90° (E) 11:47:05 437.250
HO-68 28 May 11:45:46 11:52:25 42° 297° (WNW) 11:58:57 435.675
SO-50 28 May 11:54:23 11:59:12 46° 47° (NE) 12:03:57 436.795
NANOSAT C BR1 28 May 11:55:18 11:59:34 85° 80° (E) 12:03:54 145.865
HUMSAT D 28 May 11:56:53 12:00:54 46° 98° (E) 12:04:52 437.325/437.525
PCSat 28 May 11:58:27 12:02:45 24° 251° (WSW) 12:06:56 145.827
QB50P2 28 May 12:04:27 12:08:44 74° 258° (WSW) 12:13:04 145.880/145.840
CUSAT 1 28 May 12:05:22 12:09:06 15° 77° (ENE) 12:13:27 437.405
CANX-2 28 May 12:10:10 12:10:59 10° 300° (WNW) 12:11:35 2200.000
DOVE 4 28 May 12:12:14 12:15:06 15° 301° (WNW) 12:17:43 437.250
CUTE 1.7 + AOD 2 28 May 12:13:19 12:14:18 11° 299° (WNW) 12:15:04 437.475
UKube-1 28 May 12:13:20 12:17:41 65° 102° (ESE) 12:22:00 .
ZACube-1 28 May 12:14:50 12:19:04 52° 288° (WNW) 12:23:11 437.345
POPSAT HIP 1 28 May 12:16:26 12:20:40 57° 260° (W) 12:24:55 437.405
DUCHIFAT 1 28 May 12:17:08 12:21:21 57° 260° (W) 12:25:35 145.980
CUBEBUG 2 28 May 12:19:59 12:23:59 31° 292° (WNW) 12:27:47 437.445
RS-15 28 May 12:22:11 12:32:29 42° 328° (NNW) 12:43:06 29.354- 29.394
DX 1 28 May 12:24:15 12:28:42 90° 153° (SSE) 12:33:06 434.975-435.025
Oscar 11 28 May 12:24:22 12:27:58 26° 293° (WNW) 12:31:29 145.826/435.025
ANTELSAT 28 May 12:24:39 12:28:32 25° 267° (W) 12:32:20 437.575/2403.000
50 SAT 28 May 12:32:30 12:36:22 66° 101° (E) 12:40:12 437.505
BUGSAT 1 28 May 12:33:33 12:37:38 53° 260° (W) 12:41:48 437.445
CUBEBUG 1 28 May 12:38:15 12:42:20 35° 96° (E) 12:46:25 437.445
Cosmos 2504 28 May 12:40:53 12:47:59 31° 293° (WNW) 12:54:33 435.465 / 435.565
VELOX 1 28 May 12:44:09 12:48:40 75° 103° (ESE) 12:53:09 145.980
ESTCUBE 1 28 May 12:52:54 12:57:22 57° 100° (E) 13:01:51 437.505/2401.250
TIGRISAT 28 May 12:58:56 13:01:04 13° 273° (W) 13:02:58 435.000
GONETS M04 28 May 13:00:41 13:07:50 30° 83° (E) 13:15:14
QB50P1 28 May 13:01:40 13:04:54 20° 268° (W) 13:08:02 145.935-145.965
POLYITAN 1 28 May 13:04:42 13:07:48 19° 269° (W) 13:10:48 437.675
UWE-3 28 May 13:05:16 13:07:50 15° 298° (WNW) 13:10:14 435.000/436.395/437.385
FUNcube-1 28 May 13:11:02 13:13:45 16° 297° (WNW) 13:16:17 145.935
SPROUT 28 May 13:11:38 13:15:04 23° 92° (E) 13:18:34 437.525
DELFI C3 28 May 13:11:59 13:13:11 11° 298° (WNW) 13:14:11 145.870
AISAT 28 May 13:16:30 13:20:53 50° 289° (WNW) 13:25:12 437.250
DANDE 28 May 13:22:47 13:29:33 41° 88° (E) 13:37:23 436.750
Oscar 19 28 May 13:24:43 13:29:15 32° 66° (ENE) 13:33:52 437.125/150
TISAT 1 28 May 13:28:54 13:32:25 25° 94° (E) 13:35:58 437.305
HUMSAT D 28 May 13:33:29 13:36:20 18° 296° (WNW) 13:39:03 437.325/437.525
SO-50 28 May 13:35:20 13:39:34 28° 245° (WSW) 13:43:41 436.795
CUSAT 1 28 May 13:42:53 13:50:23 68° 96° (E) 13:58:41 437.405
ITAMSAT 1 28 May 13:43:59 13:47:01 16° 59° (ENE) 13:50:14 435.822/435.867
UKube-1 28 May 13:50:50 13:53:21 15° 298° (WNW) 13:55:43 .
DX 1 28 May 14:02:53 14:04:19 11° 301° (WNW) 14:05:33 434.975-435.025
50 SAT 28 May 14:09:06 14:10:36 12° 298° (WNW) 14:11:56 437.505
CUBEBUG 1 28 May 14:14:51 14:18:34 26° 293° (WNW) 14:22:11 437.445
AO-7 28 May 14:19:33 14:24:06 17° 44° (NE) 14:29:00 29.400- 29.500
VELOX 1 28 May 14:22:22 14:24:41 14° 299° (WNW) 14:26:50 145.980
Gurwin Techsat 1B 28 May 14:28:53 14:33:39 36° 67° (ENE) 14:38:30 435.225
ESTCUBE 1 28 May 14:30:49 14:33:52 18° 297° (WNW) 14:36:47 437.505/2401.250
JAS-2 28 May 14:36:56 14:38:39 11° 56° (NE) 14:40:38 435.910
RS-15 28 May 14:39:36 14:48:49 28° 1° (N) 14:58:22 29.354- 29.394
SPROUT 28 May 14:47:17 14:51:17 36° 290° (WNW) 14:55:13 437.525
GONETS M04 28 May 14:55:20 15:04:07 66° 283° (WNW) 15:12:56
Oscar 19 28 May 15:03:45 15:08:33 36° 264° (W) 15:13:19 437.125/150
TISAT 1 28 May 15:04:24 15:08:14 32° 291° (WNW) 15:12:01 437.305
ITUPSAT 1 28 May 15:04:53 15:09:25 41° 98° (E) 15:13:57 437.325
DANDE 28 May 15:05:21 15:12:40 51° 290° (WNW) 15:20:58 436.750
BEESAT 28 May 15:11:28 15:16:06 48° 99° (E) 15:20:44 436.000
Cosmos 2499 28 May 15:11:38 15:18:39 36° 88° (E) 15:25:22 435.465 / 435.565
SWISSCUBE 28 May 15:20:10 15:24:56 64° 101° (E) 15:29:41 437.505
ITAMSAT 1 28 May 15:20:46 15:25:57 79° 256° (WSW) 15:31:11 435.822/435.867
CUSAT 1 28 May 15:26:53 15:33:48 32° 297° (WNW) 15:40:59 437.405
STARS 28 May 15:50:45 15:53:04 14° 89° (E) 15:55:35 437.465
AO-7 28 May 16:07:19 16:15:23 61° 65° (ENE) 16:23:34 29.400- 29.500
Gurwin Techsat 1B 28 May 16:08:53 16:13:40 33° 265° (W) 16:18:26 435.225
JAS-2 28 May 16:16:34 16:23:00 65° 73° (ENE) 16:28:44 435.910
HORYU 2 28 May 16:18:34 16:23:01 66° 73° (ENE) 16:27:29 437.375
KKS-1 28 May 16:25:33 16:29:57 51° 100° (E) 16:34:18 437.445
O/OREOS (USA 219) 28 May 16:31:49 16:36:19 74° 112° (ESE) 16:40:50 437.305
ITUPSAT 1 28 May 16:43:12 16:47:08 25° 295° (WNW) 16:50:59 437.325
BEESAT 28 May 16:50:00 16:53:40 22° 296° (WNW) 16:57:13 436.000
RS-15 28 May 16:54:24 17:05:08 43° 33° (NNE) 17:16:24 29.354- 29.394
DANDE 28 May 16:54:32 16:58:24 13° 314° (NW) 17:01:54 436.750
GONETS M04 28 May 16:58:11 17:03:13 15° 309° (NW) 17:07:47
SWISSCUBE 28 May 16:59:12 17:02:21 17° 298° (WNW) 17:05:22 437.505
Cosmos 2499 28 May 17:03:56 17:11:40 49° 286° (WNW) 17:18:50 435.465 / 435.565
STARS 28 May 17:25:36 17:30:00 60° 287° (WNW) 17:34:20 437.465
CUTE-I 28 May 17:47:43 17:51:27 20° 61° (ENE) 17:55:20 437.470
BEESAT 3 28 May 17:49:57 17:52:40 18° 113° (ESE) 17:55:31 437.485
HORYU 2 28 May 17:57:51 18:00:11 14° 272° (W) 18:02:19 437.375
AO-7 28 May 18:01:19 18:08:42 34° 265° (W) 18:15:58 29.400- 29.500
KKS-1 28 May 18:03:05 18:06:14 19° 297° (WNW) 18:09:16 437.445
JAS-2 28 May 18:03:36 18:08:32 22° 269° (W) 18:12:54 435.910
MOZHAYETS 4 28 May 18:06:54 18:11:22 52° 99° (E) 18:15:51
Cubesat XI-IV 28 May 18:07:56 18:12:25 29° 65° (ENE) 18:17:01 437.490
O/OREOS (USA 219) 28 May 18:13:35 18:16:21 15° 312° (NW) 18:18:59 437.305
YUBILEINY 28 May 18:37:51 18:45:55 41° 69° (ENE) 18:54:04 435.215
BEESAT 2 28 May 18:39:45 18:43:41 46° 120° (ESE) 18:47:41 435.950
AIST 2 28 May 18:42:45 18:45:16 16° 111° (ESE) 18:47:55 435.215
Cosmos 2491 28 May 18:47:21 18:53:11 21° 79° (ENE) 18:59:26 435.465 / 435.565
RS-15 28 May 19:07:06 19:18:41 76° 239° (WSW) 19:30:43 29.354- 29.394
BRITE-PL 28 May 19:19:45 19:22:34 15° 58° (ENE) 19:25:41 437.365/2234.400
CUTE-I 28 May 19:25:50 19:31:06 64° 258° (WSW) 19:36:25 437.470
BEESAT 3 28 May 19:26:19 19:30:19 51° 310° (NW) 19:34:21 437.485
MOZHAYETS 4 28 May 19:45:01 19:48:15 19° 296° (WNW) 19:51:22
Cubesat XI-IV 28 May 19:47:23 19:52:24 41° 262° (W) 19:57:26 437.490
CUBESAT XI-V 28 May 19:50:35 19:55:12 53° 100° (E) 19:59:49 437.345
DOVE 4 28 May 20:04:31 20:07:35 16° 60° (ENE) 20:10:52 437.250
STRAND 1 28 May 20:15:42 20:20:28 38° 97° (E) 20:25:16 437.568
SEEDS 28 May 20:16:18 20:17:47 12° 62° (ENE) 20:19:28 437.485
BEESAT 2 28 May 20:18:33 20:21:59 24° 319° (NW) 20:25:23 435.950
AIST 2 28 May 20:19:10 20:23:25 63° 309° (NW) 20:27:41 435.215
PRISM 28 May 20:26:13 20:30:18 52° 100° (E) 20:34:22 437.425
COMPASS 1 28 May 20:26:23 20:27:58 12° 62° (ENE) 20:29:44 437.405
HO-68 28 May 20:28:35 20:35:09 41° 63° (ENE) 20:41:47 435.675
YUBILEINY 28 May 20:34:43 20:42:57 48° 271° (W) 20:51:05 435.215
AAUSAT CUBESAT 2 28 May 20:36:30 20:38:26 13° 63° (ENE) 20:40:33 437.432
Cosmos 2504 28 May 20:36:48 20:42:06 22° 62° (ENE) 20:47:36 435.465 / 435.565
Cosmos 2491 28 May 20:40:11 20:49:01 87° 278° (W) 20:57:56 435.465 / 435.565
M-CUBED/EXP-1 PRIME 28 May 20:40:28 20:42:51 19° 99° (E) 20:45:20 437.505
AUBIESAT-1 28 May 20:46:46 20:49:12 19° 99° (E) 20:51:43 437.475
GOMX 1 28 May 20:48:07 20:53:11 53° 72° (ENE) 20:58:31 467.674
BRITE-PL 28 May 20:55:03 21:00:15 87° 77° (ENE) 21:05:52 437.365/2234.400
CINEMA 3 28 May 21:04:35 21:08:43 27° 66° (ENE) 21:12:57 145.822/145.860
BEESAT 3 28 May 21:08:05 21:09:17 11° 331° (NNW) 21:10:22 437.485
RS-15 28 May 21:21:37 21:29:33 20° 259° (W) 21:36:55 29.354- 29.394
CANX-2 28 May 21:25:59 21:30:15 81° 76° (ENE) 21:34:31 2200.000
CUBESAT XI-V 28 May 21:28:53 21:32:17 20° 296° (WNW) 21:35:35 437.345
CUTE 1.7 + AOD 2 28 May 21:29:14 21:33:30 79° 74° (ENE) 21:37:45 437.475
ZACube-1 28 May 21:37:33 21:40:39 19° 64° (ENE) 21:43:51 437.345
DOVE 4 28 May 21:39:29 21:44:41 82° 257° (WSW) 21:50:03 437.250
AIST 1 28 May 21:42:11 21:46:27 82° 279° (W) 21:50:46
CUBEBUG 2 28 May 21:43:10 21:47:21 32° 68° (ENE) 21:51:33 437.445
Oscar 11 28 May 21:44:43 21:48:34 33° 69° (ENE) 21:52:28 145.826/435.025
DX 1 28 May 21:48:36 21:50:16 12° 60° (ENE) 21:52:07 434.975-435.025
SEEDS 28 May 21:48:49 21:53:03 77° 257° (WSW) 21:57:17 437.485
STRAND 1 28 May 21:55:06 21:59:35 30° 294° (WNW) 22:04:00 437.568
COMPASS 1 28 May 21:58:57 22:03:08 74° 257° (WSW) 22:07:19 437.405
AIST 2 28 May 22:00:48 22:02:53 13° 329° (NNW) 22:04:52 435.215
PRISM 28 May 22:02:44 22:05:23 16° 297° (WNW) 22:07:56 437.425
AAUSAT CUBESAT 2 28 May 22:09:27 22:13:36 65° 259° (W) 22:17:44 437.432
VELOX 1 28 May 22:11:05 22:12:02 11° 59° (ENE) 22:13:12 145.980
M-CUBED/EXP-1 PRIME 28 May 22:14:59 22:17:48 25° 296° (WNW) 22:20:34 437.505
HO-68 28 May 22:16:01 22:22:51 45° 262° (W) 22:29:40 435.675
AUBIESAT-1 28 May 22:21:16 22:24:03 25° 297° (WNW) 22:26:48 437.475
DELFI C3 28 May 22:23:37 22:27:35 60° 74° (ENE) 22:31:33 145.870
UWE-3 28 May 22:25:49 22:30:28 66° 74° (ENE) 22:35:06 435.000/436.395/437.385
GOMX 1 28 May 22:27:29 22:31:40 23° 271° (W) 22:35:52 467.674
Cosmos 2504 28 May 22:29:12 22:36:25 74° 265° (W) 22:43:35 435.465 / 435.565
FUNcube-1 28 May 22:30:41 22:35:11 57° 73° (ENE) 22:39:40 145.935
BRITE-PL 28 May 22:37:03 22:39:43 13° 277° (W) 22:42:09 437.365/2234.400
AISAT 28 May 22:40:45 22:44:05 22° 65° (ENE) 22:47:32 437.250
CUSAT 1 28 May 22:40:49 22:43:19 12° 46° (NE) 22:46:01 437.405
Cosmos 2491 28 May 22:40:54 22:47:27 21° 303° (WNW) 22:53:40 435.465 / 435.565
CINEMA 3 28 May 22:40:57 22:45:43 42° 263° (W) 22:50:30 145.822/145.860
HUMSAT D 28 May 22:50:17 22:54:22 43° 72° (ENE) 22:58:28 437.325/437.525
ISS 28 May 23:02:42 23:04:23 14° 134° (SE) 23:06:08 145.825
GONETS M04 28 May 23:07:58 23:13:01 17° 53° (NE) 23:18:28
UKube-1 28 May 23:09:52 23:14:10 71° 74° (ENE) 23:18:31 .
TIGRISAT 28 May 23:10:51 23:12:44 13° 87° (E) 23:14:48 435.000
ZACube-1 28 May 23:12:08 23:16:39 54° 261° (W) 23:21:09 437.345
50 SAT 28 May 23:18:48 23:22:39 49° 73° (ENE) 23:26:31 437.505
CUBEBUG 2 28 May 23:19:43 23:24:00 32° 265° (W) 23:28:14 437.445
Oscar 11 28 May 23:21:10 23:24:48 25° 266° (W) 23:28:22 145.826/435.025
DX 1 28 May 23:21:34 23:25:56 81° 256° (WSW) 23:30:21 434.975-435.025
DOVE 4 28 May 23:21:43 23:23:23 11° 277° (W) 23:24:44 437.250
UNISAT 6 28 May 23:31:03 23:34:25 22° 92° (E) 23:37:48 437.425
CUBEBUG 1 28 May 23:36:17 23:40:18 37° 69° (ENE) 23:44:23 437.445
NANOSAT C BR1 28 May 23:40:17 23:41:53 12° 87° (E) 23:43:43 145.865
VELOX 1 28 May 23:43:28 23:47:55 85° 76° (ENE) 23:52:25 145.980
QB50P2 28 May 23:49:03 23:51:37 16° 89° (E) 23:54:20 145.880/145.840
ESTCUBE 1 28 May 23:54:20 23:58:46 66° 74° (ENE) 00:03:16 437.505/2401.250
POPSAT HIP 1 29 May 00:00:22 00:03:30 20° 92° (E) 00:06:45 437.405
DUCHIFAT 1 29 May 00:00:37 00:03:44 20° 92° (E) 00:06:55 145.980
DELFI C3 29 May 00:01:25 00:03:09 12° 272° (W) 00:04:41 145.870
DANDE 29 May 00:03:17 00:10:28 37° 65° (ENE) 00:16:23 436.750
UWE-3 29 May 00:04:46 00:07:29 15° 272° (W) 00:10:01 435.000/436.395/437.385
SPROUT 29 May 00:07:53 00:11:18 24° 67° (ENE) 00:14:50 437.525
FUNcube-1 29 May 00:08:57 00:11:54 16° 271° (W) 00:14:40 145.935
ANTELSAT 29 May 00:13:48 00:18:09 61° 101° (E) 00:22:25 437.575/2403.000
BUGSAT 1 29 May 00:14:29 00:17:34 20° 91° (E) 00:20:44 437.445
AISAT 29 May 00:16:10 00:20:26 43° 262° (W) 00:24:43 437.250
CUSAT 1 29 May 00:21:04 00:28:15 57° 72° (ENE) 00:33:48 437.405
TISAT 1 29 May 00:23:05 00:26:33 25° 67° (ENE) 00:30:05 437.305
Cosmos 2504 29 May 00:25:52 00:28:36 12° 283° (WNW) 00:30:49 435.465 / 435.565
HUMSAT D 29 May 00:27:11 00:30:21 19° 269° (W) 00:33:23 437.325/437.525
ISS 29 May 00:37:08 00:40:23 89° 320° (NW) 00:43:40 145.825
QB50P1 29 May 00:43:26 00:47:40 58° 100° (E) 00:51:53 145.935-145.965
TIGRISAT 29 May 00:45:41 00:50:03 64° 286° (WNW) 00:54:17 435.000
POLYITAN 1 29 May 00:46:35 00:50:52 64° 101° (E) 00:55:05 437.675
UKube-1 29 May 00:49:10 00:50:54 12° 272° (W) 00:52:23 .
SWISSCUBE 29 May 00:54:14 00:56:09 13° 59° (ENE) 00:58:17 437.505
50 SAT 29 May 00:55:21 00:57:41 15° 270° (W) 00:59:52 437.505
PCSat 29 May 00:58:23 01:03:07 33° 112° (ESE) 01:07:59 145.827
O/OREOS (USA 219) 29 May 01:01:04 01:04:43 24° 53° (NE) 01:08:24 437.305
Cosmos 2499 29 May 01:01:40 01:04:03 12° 53° (NE) 01:06:52 435.465 / 435.565
GONETS M04 29 May 01:03:06 01:11:55 72° 78° (ENE) 01:20:37
UNISAT 6 29 May 01:07:18 01:11:23 37° 290° (WNW) 01:15:20 437.425
CUBEBUG 1 29 May 01:13:18 01:16:48 23° 268° (W) 01:20:15 437.445
NANOSAT C BR1 29 May 01:14:00 01:18:16 67° 287° (WNW) 01:22:30 145.865
BEESAT 2 29 May 01:20:47 01:22:03 11° 29° (NNE) 01:23:27 435.950
QB50P2 29 May 01:23:42 01:27:53 51° 288° (WNW) 01:32:00 145.880/145.840
VELOX 1 29 May 01:24:43 01:25:12 10° 274° (W) 01:25:25 145.980
ESTCUBE 1 29 May 01:33:52 01:36:11 13° 272° (W) 01:38:18 437.505/2401.250
POPSAT HIP 1 29 May 01:35:33 01:39:35 40° 290° (WNW) 01:43:33 437.405
DUCHIFAT 1 29 May 01:35:43 01:39:45 40° 289° (WNW) 01:43:43 145.980
SPROUT 29 May 01:43:14 01:47:15 36° 264° (W) 01:51:15 437.525
DANDE 29 May 01:46:34 01:53:58 47° 270° (W) 01:59:48 436.750
BUGSAT 1 29 May 01:49:12 01:53:15 41° 290° (WNW) 01:57:14 437.445
ANTELSAT 29 May 01:51:53 01:54:30 15° 298° (WNW) 01:56:56 437.575/2403.000
VERMONT LUNAR 29 May 01:57:27 01:59:26 15° 157° (SSE) 02:01:27 437.305
TISAT 1 29 May 01:58:21 02:02:12 32° 264° (W) 02:06:04 437.305
CUSAT 1 29 May 02:04:38 02:10:17 26° 277° (W) 02:14:48 437.405
BEESAT 3 29 May 02:05:39 02:09:01 24° 41° (NE) 02:12:24 437.485
ITUPSAT 1 29 May 02:13:33 02:18:13 59° 72° (ENE) 02:22:56 437.325
ISS 29 May 02:14:13 02:17:06 28° 349° (N) 02:20:00 145.825
BEESAT 29 May 02:19:47 02:24:31 70° 74° (ENE) 02:29:16 436.000
QB50P1 29 May 02:20:30 02:23:07 16° 297° (WNW) 02:25:36 145.935-145.965
POLYITAN 1 29 May 02:23:54 02:26:18 14° 298° (WNW) 02:28:33 437.675
SWISSCUBE 29 May 02:28:37 02:33:22 90° 262° (W) 02:38:10 437.505
O/OREOS (USA 219) 29 May 02:40:07 02:44:18 40° 253° (WSW) 02:48:28 437.305
PCSat 29 May 02:41:19 02:46:28 42° 310° (NW) 02:51:38 145.827
Gurwin Techsat 1B 29 May 02:45:10 02:46:39 11° 84° (E) 02:48:28 435.225
STARS 29 May 02:49:34 02:52:30 18° 63° (ENE) 02:55:34 437.465
Cosmos 2499 29 May 02:51:56 02:58:58 66° 78° (ENE) 03:06:06 435.465 / 435.565
PHONESAT 2.4 29 May 02:52:21 02:54:06 13° 154° (SSE) 02:55:55 2401.200-2431.200
BEESAT 2 29 May 02:57:03 03:01:07 54° 51° (NE) 03:05:06 435.950
GONETS M04 29 May 03:01:01 03:08:03 27° 278° (W) 03:14:46
AIST 2 29 May 03:01:07 03:04:32 23° 40° (NE) 03:07:58 435.215
Oscar 19 29 May 03:12:42 03:17:53 69° 103° (ESE) 03:22:59 437.125/150
KKS-1 29 May 03:25:25 03:29:49 60° 73° (ENE) 03:34:16 437.445
ITAMSAT 1 29 May 03:31:52 03:36:29 32° 95° (E) 03:41:10 435.822/435.867
VERMONT LUNAR 29 May 03:33:11 03:36:07 33° 173° (S) 03:39:04 437.305
BEESAT 3 29 May 03:43:18 03:47:11 43° 241° (WSW) 03:51:00 437.485
SO-50 29 May 03:50:35 03:55:14 63° 121° (ESE) 04:00:03 436.795
ISS 29 May 03:51:17 03:54:09 27° 10° (N) 03:57:01 145.825
ITUPSAT 1 29 May 03:53:29 03:56:35 17° 271° (W) 03:59:30 437.325
BEESAT 29 May 04:00:20 04:02:56 14° 272° (W) 04:05:20 436.000
AO-7 29 May 04:08:36 04:12:56 16° 84° (E) 04:17:48 29.400- 29.500
HORYU 2 29 May 04:10:39 04:11:25 11° 86° (E) 04:12:27 437.375
SWISSCUBE 29 May 04:11:08 04:12:03 10° 275° (W) 04:12:38 437.505
Gurwin Techsat 1B 29 May 04:22:13 04:27:34 85° 101° (ESE) 04:32:55 435.225
STARS 29 May 04:24:14 04:28:36 53° 260° (W) 04:32:59 437.465
PHONESAT 2.4 29 May 04:28:30 04:31:38 32° 169° (S) 04:34:48 2401.200-2431.200
PCSat 29 May 04:29:27 04:31:27 12° 334° (NNW) 04:33:18 145.827
BEESAT 2 29 May 04:36:07 04:38:49 17° 248° (WSW) 04:41:22 435.950
AIST 2 29 May 04:39:16 04:43:24 50° 240° (WSW) 04:47:24 435.215
Cosmos 2499 29 May 04:46:12 04:51:32 23° 277° (W) 04:56:42 435.465 / 435.565
Oscar 19 29 May 04:53:15 04:56:44 18° 300° (WNW) 05:00:02 437.125/150
Cosmos 2491 29 May 04:54:33 04:57:11 12° 47° (NE) 05:00:24 435.465 / 435.565
KKS-1 29 May 05:04:16 05:06:55 15° 271° (W) 05:09:24 437.445
JAS-2 29 May 05:08:23 05:13:17 42° 98° (E) 05:18:22 435.910
VERMONT LUNAR 29 May 05:10:04 05:12:58 31° 189° (S) 05:15:51 437.305
MOZHAYETS 4 29 May 05:10:36 05:15:07 62° 73° (ENE) 05:19:38
ITAMSAT 1 29 May 05:11:16 05:16:03 36° 293° (WNW) 05:20:46 435.822/435.867
